sat.trackr.live / text

‹ back to catalog

ISS OBJECT YP

NORAD 69799 · 1998-067YP

PAYLOAD ACTIVE UNKNOWN

§ Identity

Operator
Country
TBD
Launch date
1998-11-20
Launch site
TYMSC
Launch vehicle
Mass (kg)
RCS (m²)

External: N2YO · Heavens-Above · Gunter

§ Orbital elements

Epoch: 2026-09-19T04:32:30.697152Z

Period
92.54 min
Inclination
51.6292°
Eccentricity
0.0010708
Mean motion
15.56087107 rev/d
Perigee alt
391.7 km
Apogee alt
406.3 km
Semi-major
6,777.1 km
B*
6.1390e-4
RAAN
192.7813°
Arg perigee
162.0187°
Mean anomaly
198.1185°
Rev number
1,224

§ Raw data

ISS OBJECT YP1 69799U 98067YP  26262.18924418  .00043519  00000+0  61390-3 0  99982 69799  51.6292 192.7813 0010708 162.0187 198.1185 15.56087107 12241

JSON: /api/v1/satellites/69799 · /tle

For live sub-satellite position, see the globe view (requires WebGL).

§ Visibility from observer

Set your observer location to see the next 7 days of passes ≥ 10°. The values pass through the URL so the page stays shareable.

No JS? Fill the form by hand. The geolocation button needs JavaScript.